| time (UTC) | temp C | wind direction | speed KPH | gust KPH | rain 1hr cm | rain 24hr cm | rain mn cm | humidity % | barometer mb |
| 20260504004503 | 11 | 227 | 1.6 | 3.2 | 0.00 | 0.00 | 0.00 | 58 | 1012.3 |
| 20260504003603 | 11 | 211 | 0.0 | 3.2 | 0.00 | 0.00 | 0.00 | 54 | 1012.1 |
| 20260504002703 | 12 | 240 | 0.0 | 3.2 | 0.00 | 0.00 | 0.00 | 52 | 1012.0 |
| 20260504001803 | 12 | 256 | 0.0 | 1.6 | 0.00 | 0.00 | 0.00 | 49 | 1011.9 |
| 20260504000903 | 13 | 248 | 0.0 | 4.8 | 0.00 | 0.00 | 0.00 | 46 | 1011.8 |
| 20260504000003 | 13 | 236 | 1.6 | 4.8 | 0.00 | 0.00 | 0.00 | 44 | 1011.6 |
| 20260503235403 | 13 | 225 | 1.6 | 8.0 | 0.00 | 0.00 | 0.00 | 44 | 1011.6 |
| 20260503234503 | 13 | 231 | 1.6 | 6.4 | 0.00 | 0.00 | 0.00 | 44 | 1011.7 |
| 20260503233813 | 14 | 234 | 1.6 | 6.4 | 0.00 | 0.00 | 0.00 | 43 | 1011.4 |
| 20260503232703 | 14 | 229 | 3.2 | 9.7 | 0.00 | 0.00 | 0.00 | 42 | 1011.4 |
| 20260503231803 | 15 | 243 | 3.2 | 9.7 | 0.00 | 0.00 | 0.00 | 42 | 1011.4 |
| 20260503230903 | 15 | 228 | 3.2 | 9.7 | 0.00 | 0.00 | 0.00 | 41 | 1011.3 |
| 20260503230003 | 15 | 246 | 3.2 | 17.7 | 0.00 | 0.00 | 0.00 | 39 | 1011.2 |
| 20260503225403 | 16 | 237 | 3.2 | 9.7 | 0.00 | 0.00 | 0.00 | 40 | 1011.3 |
| 20260503224503 | 16 | 232 | 3.2 | 14.5 | 0.00 | 0.00 | 0.00 | 39 | 1011.1 |
| 20260503223603 | 16 | 233 | 4.8 | 14.5 | 0.00 | 0.00 | 0.00 | 38 | 1011.1 |
| 20260503222703 | 16 | 247 | 3.2 | 22.5 | 0.00 | 0.00 | 0.00 | 37 | 1011.1 |
| 20260503221803 | 17 | 238 | 3.2 | 12.9 | 0.00 | 0.00 | 0.00 | 38 | 1011.1 |
| 20260503220903 | 17 | 237 | 4.8 | 14.5 | 0.00 | 0.00 | 0.00 | 38 | 1011.0 |
| 20260503220213 | 17 | 251 | 4.8 | 14.5 | 0.00 | 0.00 | 0.00 | 37 | 1011.1 |
| 20260503215403 | 18 | 250 | 4.8 | 11.3 | 0.00 | 0.00 | 0.00 | 38 | 1011.2 |
| 20260503214503 | 18 | 231 | 3.2 | 19.3 | 0.00 | 0.00 | 0.00 | 35 | 1011.1 |
| 20260503213603 | 18 | 351 | 3.2 | 12.9 | 0.00 | 0.00 | 0.00 | 36 | 1011.2 |
| 20260503212917 | 18 | 329 | 4.8 | 12.9 | 0.00 | 0.00 | 0.00 | 36 | 1011.1 |
| 20260503211803 | 18 | 267 | 4.8 | 22.5 | 0.00 | 0.00 | 0.00 | 35 | 1011.1 |
| 20260503211117 | 18 | 328 | 3.2 | 12.9 | 0.00 | 0.00 | 0.00 | 35 | 1010.9 |
| 20260503210003 | 17 | 331 | 4.8 | 20.9 | 0.00 | 0.00 | 0.00 | 37 | 1011.0 |
| 20260503205403 | 17 | 353 | 4.8 | 16.1 | 0.00 | 0.00 | 0.00 | 35 | 1011.0 |
| 20260503204713 | 18 | 342 | 3.2 | 9.7 | 0.00 | 0.00 | 0.00 | 40 | 1010.8 |
| 20260503203603 | 17 | 21 | 4.8 | 16.1 | 0.00 | 0.00 | 0.00 | 37 | 1010.9 |
| 20260503202703 | 17 | 341 | 4.8 | 24.1 | 0.00 | 0.00 | 0.00 | 39 | 1010.9 |
| 20260503202015 | 17 | 354 | 4.8 | 24.1 | 0.00 | 0.00 | 0.00 | 36 | 1010.9 |
| 20260503200903 | 17 | 349 | 4.8 | 14.5 | 0.00 | 0.00 | 0.00 | 37 | 1011.0 |
| 20260503200003 | 17 | 278 | 4.8 | 19.3 | 0.00 | 0.00 | 0.00 | 40 | 1011.0 |
| 20260503195403 | 17 | 268 | 3.2 | 19.3 | 0.00 | 0.00 | 0.00 | 38 | 1011.0 |
| 20260503194713 | 17 | 314 | 3.2 | 19.3 | 0.00 | 0.00 | 0.00 | 45 | 1011.2 |
| 20260503193603 | 16 | 287 | 4.8 | 16.1 | 0.00 | 0.00 | 0.00 | 41 | 1011.4 |
| 20260503192703 | 15 | 4 | 6.4 | 16.1 | 0.00 | 0.00 | 0.00 | 42 | 1011.4 |
| 20260503191803 | 16 | 352 | 4.8 | 16.1 | 0.00 | 0.00 | 0.00 | 41 | 1011.6 |
| 20260503190903 | 16 | 240 | 6.4 | 20.9 | 0.00 | 0.00 | 0.00 | 45 | 1011.5 |
| 20260503190003 | 16 | 292 | 3.2 | 17.7 | 0.00 | 0.00 | 0.00 | 44 | 1011.7 |
| 20260503185403 | 16 | 313 | 4.8 | 17.7 | 0.00 | 0.00 | 0.00 | 46 | 1011.7 |
| 20260503184714 | 15 | 309 | 4.8 | 14.5 | 0.00 | 0.00 | 0.00 | 45 | 1011.9 |
| 20260503183603 | 15 | 318 | 4.8 | 14.5 | 0.00 | 0.00 | 0.00 | 46 | 1012.0 |
| 20260503182914 | 15 | 240 | 6.4 | 16.1 | 0.00 | 0.00 | 0.00 | 45 | 1011.9 |
| 20260503181803 | 15 | 294 | 4.8 | 11.3 | 0.00 | 0.00 | 0.00 | 46 | 1012.0 |
| 20260503181113 | 15 | 268 | 4.8 | 12.9 | 0.00 | 0.00 | 0.00 | 46 | 1012.0 |
| 20260503180003 | 15 | 282 | 6.4 | 14.5 | 0.00 | 0.00 | 0.00 | 46 | 1012.1 |
| 20260503175403 | 15 | 278 | 6.4 | 20.9 | 0.00 | 0.00 | 0.00 | 46 | 1012.3 |
| 20260503174503 | 15 | 4 | 4.8 | 12.9 | 0.00 | 0.00 | 0.00 | 50 | 1012.1 |
| 20260503173603 | 14 | 4 | 3.2 | 9.7 | 0.00 | 0.00 | 0.00 | 48 | 1012.1 |
| 20260503172703 | 14 | 327 | 4.8 | 16.1 | 0.00 | 0.00 | 0.00 | 47 | 1012.1 |
| 20260503171803 | 14 | 318 | 6.4 | 24.1 | 0.00 | 0.00 | 0.00 | 49 | 1012.2 |
| 20260503170903 | 14 | 16 | 4.8 | 11.3 | 0.00 | 0.00 | 0.00 | 48 | 1012.4 |
| 20260503150903 | 13 | 16 | 4.8 | 12.9 | 0.00 | 0.00 | 0.00 | 49 | 1012.7 |
| 20260503130903 | 10 | 14 | 3.2 | 11.3 | 0.00 | 0.00 | 0.00 | 60 | 1012.7 |
| 20260503110215 | 7 | 19 | 1.6 | 9.7 | 0.00 | 0.00 | 0.00 | 64 | 1012.0 |
| 20260503080903 | 8 | 46 | 1.6 | 4.8 | 0.00 | 0.00 | 0.00 | 62 | 1010.7 |
| 20260503080217 | 8 | 26 | 0.0 | 4.8 | 0.00 | 0.00 | 0.00 | 61 | 1010.5 |
| 20260503072703 | 9 | 21 | 0.0 | 4.8 | 0.00 | 0.00 | 0.00 | 60 | 1010.5 |
| 20260503071803 | 9 | 88 | 0.0 | 1.6 | 0.00 | 0.00 | 0.00 | 60 | 1010.5 |
| 20260503070903 | 10 | 3 | 1.6 | 6.4 | 0.00 | 0.00 | 0.00 | 58 | 1010.4 |
| 20260503054503 | 10 | 31 | 1.6 | 11.3 | 0.00 | 0.00 | 0.00 | 55 | 1010.7 |
| 20260503053603 | 11 | 44 | 1.6 | 14.5 | 0.00 | 0.00 | 0.00 | 56 | 1010.8 |
| 20260503052703 | 11 | 55 | 1.6 | 8.0 | 0.00 | 0.00 | 0.00 | 57 | 1010.9 |
| 20260503051803 | 11 | 73 | 1.6 | 14.5 | 0.00 | 0.00 | 0.00 | 58 | 1010.9 |
| 20260503050903 | 11 | 40 | 1.6 | 4.8 | 0.00 | 0.00 | 0.00 | 57 | 1011.0 |
| 20260503050003 | 11 | 33 | 0.0 | 3.2 | 0.00 | 0.00 | 0.00 | 58 | 1011.2 |
| 20260503045403 | 11 | 58 | 0.0 | 1.6 | 0.00 | 0.00 | 0.00 | 58 | 1011.1 |
| 20260503044503 | 11 | 79 | 0.0 | 1.6 | 0.00 | 0.00 | 0.00 | 58 | 1011.1 |
| 20260503043603 | 11 | 31 | 0.0 | 3.2 | 0.00 | 0.00 | 0.00 | 56 | 1011.2 |
| 20260503042703 | 11 | 73 | 0.0 | 4.8 | 0.00 | 0.00 | 0.00 | 56 | 1011.2 |
| 20260503041803 | 11 | 27 | 1.6 | 4.8 | 0.00 | 0.00 | 0.00 | 55 | 1011.1 |
| 20260503040903 | 11 | 30 | 1.6 | 8.0 | 0.00 | 0.00 | 0.00 | 54 | 1011.3 |
| 20260503040003 | 11 | 8 | 0.0 | 4.8 | 0.00 | 0.00 | 0.00 | 55 | 1011.4 |
| 20260503035403 | 11 | 81 | 0.0 | 9.7 | 0.00 | 0.00 | 0.00 | 55 | 1011.3 |
| 20260503034503 | 11 | 65 | 1.6 | 9.7 | 0.00 | 0.00 | 0.00 | 54 | 1011.2 |
| 20260503033816 | 12 | 57 | 1.6 | 6.4 | 0.00 | 0.00 | 0.00 | 56 | 1011.3 |
| 20260503032703 | 12 | 40 | 1.6 | 4.8 | 0.00 | 0.00 | 0.00 | 55 | 1011.1 |
| 20260503031803 | 12 | 68 | 1.6 | 9.7 | 0.00 | 0.00 | 0.00 | 55 | 1011.1 |
| 20260503031113 | 12 | 71 | 1.6 | 9.7 | 0.00 | 0.00 | 0.00 | 58 | 1011.3 |
| 20260503030003 | 12 | 73 | 0.0 | 3.2 | 0.00 | 0.00 | 0.00 | 58 | 1011.1 |
| 20260503025403 | 12 | 44 | 0.0 | 3.2 | 0.00 | 0.00 | 0.00 | 58 | 1011.2 |
| 20260503024503 | 11 | 99 | 0.0 | 6.4 | 0.00 | 0.00 | 0.00 | 60 | 1011.2 |
| 20260503023603 | 12 | 87 | 0.0 | 6.4 | 0.00 | 0.00 | 0.00 | 58 | 1011.3 |
| 20260503022703 | 12 | 84 | 0.0 | 1.6 | 0.00 | 0.00 | 0.00 | 59 | 1011.2 |
| 20260503021803 | 12 | 78 | 0.0 | 4.8 | 0.00 | 0.00 | 0.00 | 57 | 1011.2 |
| 20260503020903 | 12 | 82 | 0.0 | 4.8 | 0.00 | 0.00 | 0.00 | 56 | 1011.0 |
| 20260503020003 | 12 | 52 | 0.0 | 4.8 | 0.00 | 0.00 | 0.00 | 54 | 1011.3 |
| 20260503015403 | 12 | 72 | 0.0 | 4.8 | 0.00 | 0.00 | 0.00 | 56 | 1011.2 |
| 20260503014503 | 12 | 60 | 0.0 | 4.8 | 0.00 | 0.00 | 0.00 | 56 | 1011.2 |
| 20260503013603 | 12 | 38 | 0.0 | 6.4 | 0.00 | 0.00 | 0.00 | 55 | 1011.4 |
| 20260503012703 | 12 | 40 | 1.6 | 11.3 | 0.00 | 0.00 | 0.00 | 54 | 1011.3 |
| 20260503011803 | 12 | 31 | 0.0 | 3.2 | 0.00 | 0.00 | 0.00 | 60 | 1011.2 |
| 20260503011114 | 12 | 83 | 0.0 | 1.6 | 0.00 | 0.00 | 0.00 | 60 | 1011.1 |
| 20260503010003 | 11 | 102 | 0.0 | 3.2 | 0.00 | 0.00 | 0.00 | 62 | 1011.0 |
| 20260503005613 | 11 | 123 | 0.0 | 1.6 | 0.00 | 0.00 | 0.00 | 64 | 1011.0 |